User: anonymous   Login
Location: Asheville, NC
(35.6000°N, 82.5500°W)
Time: 08:51:40
(UTC-05:00)
Language:

AO-92 - Orbit

View from above orbital plane
View from above orbital plane
View from above satellite
View from above satellite

Ground track
Ground track

The orbit data is extracted from the following two-line orbital elements,

1 43137U 18004AC  18051.11621628  .00001069  00000-0  49323-4 0  9994
2 43137  97.5495 113.4198 0010594 142.9893 217.2076 15.22434605  5890
Epoch (UTC): 20 February 2018 02:47:21
Eccentricity: 0.0010594
inclination: 97.5495°
perigee height: 491 km
apogee height: 506 km
right ascension of ascending node: 113.4198°
argument of perigee: 142.9893°
revolutions per day: 15.22434605
mean anomaly at epoch: 217.2076°
orbit number at epoch: 589

The dashed part of the orbit path shows where the satellite is in the earth's shadow,  

DLR